Skip Page Navigation
NASA JPL Caltech
NASA Logo - Jet Propulsion Laboratory + View the NASA Portal
+ Center for Near-Earth Object Studies
JPL Home Earth Solar System Stars & Galaxies Technology
JPL Solar System Dynamics
BODIES ORBITS EPHEMERIDES TOOLS PHYSICAL DATA DISCOVERY FAQ SITE MAP
JPL Small-Body Database Browser
Search: [ help ]  
135352 (2001 TV74)
Classification: Main-belt Asteroid          SPK-ID: 2135352
Ephemeris | Orbit Diagram | Orbital Elements | Mission Design | Physical Parameters | Discovery Circumstances | Close-Approach Data ]

[ show orbit diagram ]
Orbital Elements at Epoch 2459200.5 (2020-Dec-17.0) TDB
Reference: JPL 24 (heliocentric ecliptic J2000)
 Element Value Uncertainty (1-sigma)   Units 
e .2296259348130259 3.8818e-08  
a 3.047102542764583 1.8603e-08 au
q 2.347408772911117 1.2047e-07 au
i 2.062469627113223 4.4507e-06 deg
node 147.5460652238495 0.00011938 deg
peri 194.1281094410802 0.00011981 deg
M 248.3107749167226 1.3051e-05 deg
tp 2459803.250817710263
(2022-Aug-11.75081771)
7.4535e-05 TDB
period 1942.804189158829
5.32
1.7791e-05
4.871e-08
d
yr
n .1852991680833612 1.6969e-09 deg/d
Q 3.746796312618049 2.2874e-08 au
  Orbit Determination Parameters
   # obs. used (total)      645  
   data-arc span      7122 days (19.50 yr)  
   first obs. used      2001-10-10  
   last obs. used      2021-04-10  
   planetary ephem.      DE441  
   SB-pert. ephem.      SB441-N16  
   condition code      0  
   norm. resid. RMS      .59584  
   source      ORB  
   producer      Otto Matic  
   solution date      2021-May-04 09:21:13  

Additional Information
 Earth MOID = 1.33746 au 
 Jupiter MOID = 1.6653 au 
 T_jup = 3.196 
[ show covariance matrix ]

Ephemeris | Orbit Diagram | Orbital Elements | Mission Design | Physical Parameters | Discovery Circumstances | Close-Approach Data ]

Physical Parameter Table
Parameter Symbol Value Units Sigma Reference Notes
absolute magnitude H 15.27   n/a MPCxxxxx  
diameter diameter 4.563 km 0.763 urn:nasa:pds:neowise_diameters_albedos::2.0[mainbelt] (http://adsabs.harvard.edu/abs/2011ApJ...741...68M)  
geometric albedo albedo 0.077   0.036 urn:nasa:pds:neowise_diameters_albedos::2.0[mainbelt] (http://adsabs.harvard.edu/abs/2011ApJ...741...68M)  

135352 (2001 TV74)          Discovered 2001-Oct-13 by LINEAR at Socorro
Reference: 20060907/Numbers.arcLast Updated: 2006-09-10

[ hide close-approach data ]
Close-Approach Data   ...sorted by Date/Time (TDB)
Date/Time (TDB) Time Uncertainty
(days_HH:MM)
Body Nominal Distance (au) Minimum Distance (au) Maximum Distance (au) V-relative (km/s) V-infinity (km/s) JD (TDB) Time Uncertainty (minutes) Semi-major axis (km) Semi-minor axis (km) range-LOV angle (deg) N-sigma BP Orbit Ref. Reference Modified
1945-Sep-04 00:01 00:02 Jupiter 1.84588822418056 1.84588692242378 1.84588952593565 1.62031542587293 1.30678319389533 2431702.500907790 2.22940241100592 153.215208629963 80.7105089340326 49.0167399170499 1099664.472589 T 24 CATAB v2.0g-lin.ifort 2021-May-04 09:21:15 2021-May-04 09:21
1955-Feb-01 01:10 00:02 Jupiter 1.76808798734856 1.76808704290704 1.76808893178827 1.65962797518049 1.34023969387776 2435139.548874284 1.95038243097453 137.072583184849 56.2076528382049 -25.0518944973775 1098142.74252753 T 24 CATAB v2.0g-lin.ifort 2021-May-04 09:21:15 2021-May-04 09:21
2003-Sep-12 13:38 < 00:01 Jupiter 1.65427297650443 1.65427262000301 1.65427333301176 1.07751319086078 0.370125205166664 2452895.067737608 0.447421120336209 3170.40501883615 512.779315269981 -12.2112253842775 2458013.76140902 T 24 CATAB v2.0g-lin.ifort 2021-May-04 09:21:15 2021-May-04 09:21
2052-Apr-19 08:26 00:01 Jupiter 1.78712963556135 1.78712915421371 1.78713011690828 1.42188146360667 1.0362591359148 2470646.851201064 1.07540220288891 153.891258013443 118.120284378222 -22.6859931765553 1669409.37409392 T 24 CATAB v2.0g-lin.ifort 2021-May-04 09:21:15 2021-May-04 09:21
2061-Sep-14 13:55 00:01 Jupiter 1.82333025508571 1.82332967964915 1.82333083052185 1.92816857936878 1.66995214540906 2474082.080048840 1.41401561880334 52.3231590400666 27.0056184043433 -83.8151983764334 1665127.13999713 T 24 CATAB v2.0g-lin.ifort 2021-May-04 09:21:15 2021-May-04 09:21
2110-May-01 03:29 00:03 Jupiter 1.6593991048926 1.65939869971425 1.65939951007849 1.11342995891787 0.467811587201483 2491841.644957792 2.82965880020988 1804.90457822787 367.028215000919 -16.9011294192364 2304008.58937323 T 24 CATAB v2.0g-lin.ifort 2021-May-04 09:21:15 2021-May-04 09:21
2158-Dec-06 06:10 00:04 Jupiter 1.74163998028493 1.74163862097519 1.74164133959388 1.27928528527039 0.81479967382148 2509592.756641827 4.32124188992545 685.481019272324 230.56534561169 17.3838366477165 915047.509874102 T 24 CATAB v2.0g-lin.ifort 2021-May-04 09:21:15 2021-May-04 09:21
2168-May-02 07:19 00:05 Jupiter 1.88472395115887 1.88472193930723 1.88472596300654 2.23451453868759 2.02341937571218 2513027.804696459 4.69763387692093 51.1606262085482 18.4854725767838 -82.7542641002153 520529.828735008 T 24 CATAB v2.0g-lin.ifort 2021-May-04 09:21:15 2021-May-04 09:21
Ephemeris | Orbit Diagram | Orbital Elements | Mission Design | Physical Parameters | Discovery Circumstances | Close-Approach Data ]
ABOUT SSD CREDITS/AWARDS PRIVACY/COPYRIGHT GLOSSARY LINKS
FirstGov 2021-Jun-24 07:48 UT
(server date/time)  
NASA Home Page
Site Manager:   Ryan S. Park
Webmaster  Alan B. Chamberlin